Wind_Speed
3 3 3 4 4 4 4 4 3 3 3 3 3 3 3 3 3 3 3 3 4 4 5 5 6 6 7 7 8 8 8 8 8 8 8 8 8 8 7 7 7 7 7
1 2 3 3 4 4 4 4 4 3 3 3 3 3 3 3 3 3 3 4 4 4 5 5 6 7 7 7 7 8 8 8 8 9 9 9 9 9 8 8 9 9 9
1 1 2 3 4 4 4 4 4 4 3 3 3 4 4 3 4 4 4 4 4 5 5 6 7 7 7 7 8 8 8 9 9 9 9 10 10 10 10 10 10 10 11
1 1 2 3 3 4 4 4 5 5 4 4 5 5 4 4 4 4 5 5 5 5 6 6 7 7 7 7 8 8 9 9 10 10 11 11 11 11 12 12 12 12 12
2 3 2 2 3 3 4 5 5 6 6 6 5 5 6 5 5 6 6 5 5 6 7 7 8 8 8 8 9 9 9 10 10 11 12 11 11 12 13 13 14 14 14
3 4 3 3 3 4 4 5 6 7 6 6 6 7 7 7 7 7 6 6 6 6 7 7 8 8 8 9 9 10 10 10 10 11 11 12 12 12 13 14 14 15 15
3 4 4 4 3 4 5 6 6 6 6 7 7 7 7 8 7 7 8 8 7 7 8 8 8 8 8 8 9 10 10 10 10 11 11 12 13 13 13 13 14 14 15
3 4 5 4 4 4 5 5 5 5 6 6 7 7 8 7 7 8 8 9 9 9 9 9 9 9 9 9 10 10 10 10 10 10 10 11 12 13 14 14 14 14 14
4 4 5 5 5 5 5 6 6 6 6 6 7 8 8 8 9 9 9 9 9 9 10 10 10 10 10 11 11 12 12 11 11 11 11 12 12 13 13 14 15 16 16
6 6 6 6 6 6 6 7 7 7 7 7 8 8 9 9 9 9 9 9 9 9 10 10 11 11 11 11 12 12 13 13 13 13 13 13 13 13 14 14 15 15 15
7 7 7 7 7 8 7 7 7 7 7 8 8 9 9 10 10 9 9 9 9 9 10 10 10 11 11 12 12 13 13 13 13 13 14 14 14 15 15 15 16 16 16
8 9 9 8 9 9 9 8 8 8 8 9 9 9 9 9 10 10 10 11 10 10 10 10 10 10 11 12 13 13 14 14 14 14 15 15 16 16 17 17 18 18 18
11 11 11 10 10 10 10 10 10 10 9 10 10 11 11 10 10 10 11 11 11 11 11 11 11 11 12 12 13 14 15 15 16 16 16 17 17 18 18 18 18 19 18
13 13 13 13 12 12 12 12 12 11 11 12 11 12 12 12 12 12 12 12 12 12 12 12 12 12 12 13 13 14 15 16 17 17 18 18 18 19 19 19 18 18 17
16 16 15 14 14 14 14 14 14 13 13 13 13 13 14 14 14 14 14 14 14 14 14 14 13 14 14 15 15 15 15 16 16 17 17 18 19 19 19 19 19 18 19
17 18 19 17 17 16 16 15 14 14 14 14 14 15 15 15 15 15 16 16 16 16 15 16 15 15 15 16 16 17 17 17 17 18 18 19 19 20 19 19 19 20 20
20 20 18 19 18 18 17 17 16 16 16 16 16 16 16 16 16 17 17 18 18 18 18 17 17 17 18 18 18 18 18 19 19 19 20 20 20 20 20 21 21 21 21
23 22 21 20 19 19 19 18 18 17 17 17 18 17 17 18 18 18 19 19 19 19 19 19 19 19 19 20 21 21 20 20 20 21 21 21 21 21 21 21 21 22 22
24 23 22 21 21 21 20 19 19 19 19 20 19 19 19 20 20 21 21 21 21 21 21 21 21 21 22 22 23 23 23 22 22 22 22 22 22 22 22 21 22 22 22
23 24 23 23 23 22 21 20 21 21 21 22 22 22 22 22 22 23 23 23 23 22 23 23 23 23 23 23 24 24 25 24 24 24 23 23 23 23 22 22 23 23 23
25 25 25 24 24 24 23 23 23 23 24 24 24 24 24 24 24 24 24 25 25 24 24 24 25 25 25 26 26 26 26 26 25 24 25 25 25 24 24 23 23 23 24
28 27 26 25 25 25 25 25 25 25 25 25 24 24 24 25 26 27 27 26 26 27 26 26 26 26 26 27 27 27 27 27 26 26 26 26 26 25 25 24 24 25 25
30 30 29 28 28 28 28 28 27 27 26 25 25 26 27 27 28 28 29 29 29 29 29 28 28 27 27 28 28 28 28 28 28 27 27 27 26 26 26 25 25 25 26
32 32 31 30 30 31 30 30 29 29 28 27 28 28 29 30 30 30 30 30 30 30 30 29 29 29 29 29 29 29 29 30 30 29 28 28 28 27 27 27 27 27 26
33 34 33 33 32 32 32 32 31 31 29 29 30 30 31 31 31 31 31 31 30 30 30 31 31 31 31 31 31 30 30 30 30 30 30 30 29 28 27 27 27 27 27
35 35 35 35 34 33 33 33 33 32 31 31 32 32 32 32 32 33 32 33 32 32 32 32 32 33 33 32 32 32 31 31 31 30 30 30 30 29 28 28 28 28 28
Wind_Direction
207 207 206 209 208 216 222 224 223 230 227 234 240 257 276 266 264 265 269 269 274 273 269 270 276 276 280 279 277 277 275 272 267 266 268 271 268 264 266 269 271 272 274
212 218 216 205 202 212 216 221 224 236 242 253 253 256 268 267 268 271 276 276 279 283 281 281 285 285 286 285 284 285 275 272 272 270 270 269 269 265 265 270 272 273 276
322 232 218 219 213 221 228 232 239 245 250 261 263 262 262 270 269 276 276 276 281 284 285 288 289 291 291 290 289 289 283 277 274 274 275 275 270 266 265 268 271 272 275
357 324 237 235 226 234 243 249 251 255 266 272 273 272 266 272 274 275 275 275 277 281 284 290 290 290 290 293 292 290 290 283 277 274 273 276 273 269 268 268 269 270 272
10 3 322 261 248 258 253 252 257 262 266 270 275 275 274 276 278 278 276 273 273 277 279 286 290 290 289 291 292 291 290 289 281 278 276 276 275 274 274 273 271 271 273
18 9 355 325 278 267 262 258 263 264 266 271 277 279 280 283 283 279 280 276 276 280 281 280 283 287 287 288 292 293 291 289 286 285 279 275 274 277 277 275 273 271 273
11 3 357 348 319 291 279 271 270 268 271 277 281 283 283 282 279 278 279 281 280 280 280 279 282 284 285 289 292 296 293 294 291 288 284 280 278 277 280 279 277 276 276
1 350 348 351 341 319 299 283 279 274 278 282 284 287 290 286 281 283 284 283 282 280 281 280 281 282 285 287 293 297 296 292 292 292 288 285 285 282 280 281 282 282 282
345 343 345 341 336 328 314 297 285 277 281 286 290 290 287 284 286 288 288 286 280 278 279 280 281 282 284 285 290 295 297 291 290 290 290 288 285 285 284 284 283 284 282
336 332 332 331 327 322 317 313 302 290 288 292 292 292 289 286 287 290 291 291 289 285 281 281 280 281 284 286 290 291 293 292 290 289 288 288 288 287 286 288 288 286 284
328 329 329 324 317 315 312 308 308 305 305 301 296 294 291 290 289 292 295 293 293 290 288 287 286 286 286 288 291 291 291 294 293 292 291 287 287 288 288 289 290 289 286
321 318 318 316 313 309 306 301 299 298 301 306 304 301 301 301 297 292 291 291 291 290 289 288 289 290 290 289 291 291 291 292 292 293 292 290 289 289 289 290 290 288 286
311 309 307 307 307 304 301 299 295 295 296 299 302 300 299 301 301 300 300 298 296 294 294 289 287 288 291 291 292 290 291 290 289 289 290 291 290 289 288 290 291 289 287
303 305 304 302 302 302 299 296 292 291 291 291 294 297 295 297 299 299 298 299 299 298 297 295 292 291 292 294 293 290 289 290 288 286 286 287 289 289 290 290 290 289 289
299 298 299 300 296 298 296 291 289 285 286 287 287 292 293 293 294 295 295 294 295 294 295 296 293 292 294 294 293 291 292 293 291 290 288 288 289 289 289 290 289 287 286
294 295 292 294 293 292 292 287 288 283 281 284 285 288 290 290 288 291 293 294 294 292 292 294 294 293 293 294 294 293 293 295 293 293 292 291 290 290 289 289 289 287 286
292 293 292 293 291 292 291 287 286 283 281 281 283 285 287 289 290 290 292 293 293 291 291 293 293 292 292 292 293 293 293 292 292 294 293 292 292 291 290 288 287 286 287
290 291 290 291 289 291 293 290 286 283 282 281 281 282 284 287 290 291 292 292 292 290 290 290 290 290 291 291 292 293 293 292 292 293 292 292 292 291 291 290 289 288 287
289 289 287 287 289 290 291 289 287 285 281 280 279 280 281 283 286 287 289 290 290 290 289 289 289 289 289 289 291 293 292 292 292 292 291 291 291 291 290 291 290 289 288
288 290 286 285 286 288 289 288 285 284 283 280 279 279 280 282 285 286 287 289 289 289 288 287 288 288 288 289 290 291 291 292 291 290 290 289 290 291 290 289 290 289 288
285 286 284 282 283 285 286 286 285 285 283 280 279 280 280 281 283 284 287 288 287 287 287 286 286 286 287 287 288 289 290 290 289 289 289 290 290 290 290 290 290 290 290
281 281 281 282 283 283 283 284 285 284 282 280 280 282 283 282 282 283 286 286 286 287 287 287 286 285 286 287 288 288 288 287 287 287 288 289 289 289 290 290 291 292 292
276 277 277 279 280 281 281 281 282 282 282 282 281 282 282 282 282 283 285 285 286 286 285 286 286 286 287 287 287 287 286 285 286 286 286 287 287 288 290 290 290 291 291
274 274 274 275 277 278 278 278 279 279 279 280 281 281 282 282 280 282 284 285 285 285 284 283 284 285 286 287 287 286 285 284 285 285 285 286 287 288 289 290 289 291 292
271 272 272 275 275 275 276 276 276 275 275 277 279 280 282 282 281 282 282 283 284 283 283 283 283 283 284 284 285 285 284 283 284 284 284 285 285 286 287 289 290 289 289
269 271 271 274 274 274 274 275 275 273 275 277 278 279 280 281 281 282 282 282 282 282 281 282 282 283 283 283 284 284 283 282 282 282 282 283 283 284 285 287 287 288 288
Height
5887 5888 5888 5889 5890 5891 5892 5893 5893 5894 5894 5895 5895 5895 5896 5896 5896 5897 5897 5897 5898 5898 5898 5898 5899 5899 5899 5899 5899 5899 5899 5900 5900 5900 5901 5901 5901 5901 5901 5901 5901 5902 5902
5887 5888 5888 5889 5890 5891 5891 5892 5893 5893 5894 5894 5895 5895 5895 5895 5896 5896 5896 5897 5897 5897 5897 5898 5898 5898 5898 5898 5898 5898 5898 5898 5898 5899 5899 5899 5899 5899 5899 5900 5900 5900 5900
5887 5888 5888 5889 5890 5890 5891 5891 5892 5893 5893 5894 5894 5894 5894 5895 5895 5895 5895 5896 5896 5896 5896 5896 5897 5896 5896 5896 5896 5896 5896 5896 5896 5896 5897 5897 5897 5897 5897 5897 5897 5897 5897
5888 5888 5888 5888 5889 5890 5890 5891 5892 5892 5893 5893 5894 5894 5894 5894 5894 5894 5894 5894 5894 5894 5895 5895 5895 5895 5895 5895 5895 5895 5895 5894 5894 5894 5894 5894 5894 5895 5895 5895 5895 5895 5895
5888 5888 5888 5888 5888 5889 5889 5890 5891 5892 5892 5892 5893 5893 5893 5893 5893 5893 5893 5893 5893 5893 5892 5892 5893 5893 5893 5893 5893 5892 5892 5892 5892 5892 5892 5892 5892 5892 5892 5892 5892 5892 5892
5888 5888 5888 5888 5888 5888 5889 5889 5890 5891 5891 5891 5892 5892 5892 5892 5891 5891 5891 5891 5891 5891 5891 5891 5891 5891 5891 5891 5891 5890 5890 5890 5889 5889 5889 5889 5889 5889 5889 5889 5888 5888 5888
5889 5889 5888 5888 5888 5888 5888 5889 5889 5889 5890 5890 5890 5890 5890 5890 5890 5890 5890 5890 5890 5890 5890 5890 5890 5889 5889 5889 5889 5888 5887 5887 5887 5886 5886 5886 5886 5886 5886 5885 5885 5885 5885
5889 5889 5889 5888 5888 5888 5888 5888 5888 5888 5888 5889 5889 5889 5889 5889 5889 5888 5888 5888 5888 5887 5887 5887 5887 5887 5887 5887 5886 5886 5885 5884 5884 5884 5883 5883 5883 5883 5883 5882 5882 5881 5881
5889 5889 5888 5888 5888 5888 5888 5887 5887 5887 5887 5887 5887 5887 5887 5887 5887 5887 5886 5885 5885 5885 5885 5885 5885 5885 5884 5884 5884 5883 5883 5882 5882 5881 5881 5880 5880 5880 5879 5879 5878 5878 5877
5888 5888 5888 5888 5887 5887 5887 5886 5886 5885 5885 5885 5885 5885 5886 5885 5885 5885 5884 5883 5883 5883 5882 5882 5882 5882 5881 5881 5881 5881 5880 5879 5879 5878 5878 5877 5877 5877 5876 5875 5875 5874 5874
5888 5887 5887 5887 5886 5886 5885 5885 5885 5884 5884 5884 5884 5883 5883 5883 5882 5882 5882 5881 5881 5880 5879 5879 5879 5879 5878 5878 5878 5877 5877 5876 5875 5875 5874 5874 5874 5873 5873 5872 5871 5870 5869
5887 5886 5886 5885 5885 5884 5884 5883 5883 5883 5882 5882 5882 5881 5881 5881 5880 5879 5879 5879 5878 5877 5877 5876 5876 5876 5875 5875 5874 5874 5873 5873 5872 5871 5871 5870 5870 5869 5869 5868 5867 5866 5865
5886 5885 5884 5883 5883 5882 5882 5881 5881 5881 5880 5880 5879 5879 5878 5878 5877 5876 5876 5875 5875 5874 5874 5873 5873 5872 5872 5872 5871 5870 5870 5869 5868 5868 5867 5866 5865 5865 5864 5863 5862 5861 5861
5883 5882 5882 5881 5880 5880 5879 5879 5878 5878 5878 5877 5877 5876 5875 5875 5874 5874 5873 5873 5872 5871 5870 5870 5870 5869 5868 5868 5867 5866 5865 5865 5864 5863 5862 5861 5861 5860 5859 5858 5857 5857 5856
5880 5879 5879 5878 5877 5876 5876 5875 5875 5874 5874 5874 5874 5873 5872 5872 5871 5870 5870 5869 5869 5868 5867 5866 5866 5865 5865 5864 5863 5862 5861 5860 5859 5858 5857 5856 5856 5855 5854 5853 5852 5852 5851
5877 5876 5875 5874 5873 5873 5872 5871 5871 5871 5870 5870 5870 5869 5868 5868 5867 5867 5866 5865 5864 5864 5863 5863 5862 5861 5860 5859 5859 5857 5856 5856 5855 5853 5852 5852 5851 5850 5849 5848 5847 5846 5846
5873 5872 5870 5870 5869 5869 5868 5867 5866 5866 5865 5865 5865 5865 5864 5864 5863 5862 5862 5861 5860 5859 5859 5858 5857 5857 5856 5855 5854 5853 5851 5851 5850 5848 5847 5846 5845 5844 5843 5842 5841 5841 5840
5868 5866 5866 5865 5864 5864 5863 5862 5862 5861 5861 5860 5860 5860 5859 5859 5858 5858 5857 5856 5855 5854 5854 5853 5852 5851 5850 5849 5848 5847 5846 5845 5844 5843 5842 5841 5839 5838 5837 5836 5835 5834 5834
5862 5860 5860 5859 5859 5858 5857 5856 5856 5856 5855 5855 5855 5855 5854 5854 5853 5853 5852 5851 5850 5849 5848 5847 5847 5846 5845 5844 5843 5842 5841 5840 5838 5837 5836 5835 5834 5832 5831 5830 5829 5828 5827
5856 5855 5855 5854 5853 5853 5852 5851 5851 5850 5850 5849 5849 5849 5848 5847 5847 5846 5845 5844 5843 5842 5841 5841 5840 5840 5839 5837 5836 5835 5834 5833 5832 5831 5830 5828 5827 5826 5825 5824 5823 5821 5821
5850 5850 5849 5849 5848 5847 5846 5846 5845 5844 5843 5843 5842 5842 5841 5841 5840 5839 5838 5838 5836 5835 5834 5834 5833 5833 5832 5831 5830 5828 5827 5826 5825 5824 5823 5822 5821 5820 5818 5817 5816 5815 5814
5843 5843 5843 5842 5841 5840 5840 5839 5838 5837 5836 5836 5835 5835 5834 5834 5833 5832 5831 5830 5829 5828 5827 5826 5826 5825 5824 5823 5822 5821 5820 5819 5818 5817 5816 5815 5814 5813 5811 5810 5809 5808 5807
5835 5835 5835 5834 5834 5834 5833 5832 5831 5830 5830 5829 5828 5828 5827 5826 5825 5824 5823 5822 5822 5820 5820 5819 5818 5817 5816 5815 5814 5813 5812 5811 5810 5809 5808 5807 5806 5805 5805 5803 5802 5801 5800
5826 5826 5826 5826 5826 5825 5825 5824 5823 5823 5822 5821 5821 5820 5819 5818 5817 5816 5815 5814 5813 5812 5811 5810 5810 5809 5808 5807 5806 5805 5804 5803 5802 5801 5800 5799 5798 5797 5796 5795 5794 5793 5792
5817 5817 5816 5816 5816 5816 5815 5815 5814 5814 5813 5813 5812 5812 5811 5809 5809 5807 5806 5806 5805 5804 5803 5802 5801 5800 5799 5798 5797 5796 5795 5794 5794 5793 5792 5791 5790 5789 5788 5787 5786 5785 5784
5807 5807 5807 5807 5807 5806 5806 5805 5805 5804 5804 5804 5804 5803 5802 5801 5800 5798 5797 5797 5796 5795 5794 5793 5792 5791 5790 5789 5788 5787 5786 5785 5785 5785 5784 5782 5782 5781 5781 5780 5778 5777 5776